www.pogodaiklimat.ru

Погода и климат >> Архив погоды >> ОАЭ >> Шарджа


ПОГОДА в Шардже

  • Прогноз погоды в Шардже
  • Монитор погоды в Шардже

АРХИВ ПОГОДЫ в Шардже

Время (UTC), дата Ветер
(напр.,м/с)
 
Видим.   Явления Облачность Т
(С)
Тd
(С)
f
(%)
Тe
(С)
Тes
(С)
Комфортность P
(гПа)
Po
(гПа)
Тmin
(С)
Tmax
(С)
R
(мм)
R24
(мм)
S
(см)
18 10.07 ЮЗ 3 10 км ясно +34.4 +24.2 55 +46 +46 опасность
перегрева
995.1 991.2 +39.1
21 10.07 Ю 3 10 км ясно +32.6 +23.3 58 +43 +43 опасность
перегрева
994.5 990.6
00 11.07 ЮВ 2 10 км ясно +29.1 +22.5 68 +38 +38 очень
душно
994.7 990.8
03 11.07 В 2 10 км 4/0
[Ci fib]
+28.8 +18.6 54 +34 +36 очень
душно
996.6 992.6
06 11.07 Ю 3 10 км 3/0
[Ci fib]
+37.8 +10.4 19 +37 +49 очень
жарко
997.5 993.6 +26.4
09 11.07 СЗ 5 10 км ясно +39.7 +16.8 26 +42 +53 опасность
перегрева
996.3 992.5
12 11.07 З 6 10 км ясно +41.1 +7.2 13 +39 +42 очень
жарко
994.3 990.5
15 11.07 З 5 10 км ясно +38.1 +14.3 24 +39 +39 очень
душно
995.2 991.3
18 11.07 З 2 10 км ясно +35.3 +20.1 41 +41 +41 опасность
перегрева
996.5 992.6 +41.9
21 11.07 ЮВ 2 10 км ясно +31.4 +21.3 55 +39 +39 очень
душно
995.9 991.9
00 12.07 Ю 3 10 км ясно +31.9 +16.0 38 +35 +35 очень
душно
995.3 991.4
03 12.07 ЮВ 3 10 км 1/0
[Ci fib]
+31.9 +14.0 34 +33 +35 жарко 996.9 993.0
06 12.07 Ю 2 10 км ясно +36.7 +16.5 30 +39 +56 опасность
солнечного
удара
997.6 993.7 +28.1
09 12.07 З 4 10 км ясно +39.2 +21.4 36 +46 +60 опасность
перегрева
996.0 992.2
12 12.07 З 5 10 км ясно +37.3 +24.7 49 +50 +55 опасность
перегрева
994.8 990.9
15 12.07 СЗ 3 10 км ясно +35.4 +25.1 55 +49 +49 опасность
перегрева
995.4 991.5
18 12.07 СВ 1 10 км ясно +34.4 +22.9 51 +44 +44 опасность
перегрева
997.2 993.3 +41.1
21 12.07 штиль 0 10 км ясно +33.5 +23.1 55 +44 +44 опасность
перегрева
996.5 992.9
00 13.07 СВ 2 10 км ясно +30.3 +22.9 65 +40 +40 очень
душно
996.3 992.3
03 13.07 СВ 1 7000 м пыль 3/0
[Ci fib]
+31.7 +22.8 59 +41 +44 опасность
перегрева
997.5 993.5
06 13.07 Ю 4 10 км ясно +38.7 +19.0 32 +43 +54 опасность
перегрева
998.0 994.1 +29.9
09 13.07 ЮЗ 3 10 км ясно +43.4 +12.9 17 +43 +61 опасность
перегрева
996.8 993.0
12 13.07 СЗ 5 10 км ясно +37.6 +26.6 54 +54 +59 опасность
перегрева
995.7 991.8
15 13.07 СЗ 3 10 км ясно +36.0 +24.4 51 +48 +48 опасность
перегрева
996.1 992.2
18 13.07 С 1 10 км ясно +35.6 +20.2 41 +42 +42 опасность
перегрева
998.1 994.3 +44.1
21 13.07 штиль 0 10 км 1/0
[Ac trans]
+34.2 +20.7 45 +41 +41 опасность
перегрева
997.3 993.4
00 14.07 ЮВ 2 10 км ясно +32.6 +21.7 53 +41 +41 опасность
перегрева
996.9 992.8
03 14.07 Ю 4 8000 м пыль 1/0
[Ci fib]
+34.4 +21.9 48 +43 +44 опасность
перегрева
998.6 994.7
06 14.07 Ю 5 6000 м пыль ясно +38.1 +18.4 32 +42 +51 опасность
перегрева
999.2 995.3 +31.9
09 14.07 ЮЗ 5 6000 м пыль 3/0
[Ac trans]
+40.1 +23.7 39 +50 +60 опасность
перегрева
997.4 993.5
12 14.07 З 6 5000 м пыль ясно +36.6 +28.4 63 +58 +62 опасность
перегрева
996.4 992.5
15 14.07 З 4 4000 м пыль ясно +35.0 +27.7 66 +55 +55 опасность
перегрева
996.2 992.3
18 14.07 С 2 7000 м пыль ясно +33.9 +25.9 63 +49 +49 опасность
перегрева
997.9 994.0 +42.8
21 14.07 Ю 2 8000 м мгла ясно +33.3 +26.8 69 +51 +51 опасность
перегрева
996.4 992.4
00 15.07 Ю 3 8000 м пыль ясно +32.9 +25.9 67 +49 +49 опасность
перегрева
996.0 992.1
03 15.07 Ю 4 3000 м мгла ясно +31.8 +28.0 80 +52 +54 опасность
перегрева
997.0 993.1
06 15.07 ЮЗ 6 6000 м пыль ясно +35.9 +25.2 54 +50 +57 опасность
перегрева
997.2 993.3 +31.7
09 15.07 ЮЗ 6 10 км ясно +38.2 +24.3 45 +50 +58 опасность
перегрева
996.1 992.4
12 15.07 З 6 10 км ясно +38.5 +21.1 37 +45 +49 опасность
перегрева
994.8 991.0
15 15.07 ЮЗ 5 10 км ясно +35.5 +25.2 55 +49 +49 опасность
перегрева
994.6 990.7
18 15.07 ЮЗ 5 10 км ясно +33.9 +26.4 65 +51 +51 опасность
перегрева
995.9 992.0 +39.7
21 15.07 ЮВ 4 10 км 3/0
[Ac trans]
+33.0 +26.1 67 +49 +49 опасность
перегрева
995.0 991.0
00 16.07 Ю 4 10 км 3/0 900 м
[Ac trans]
+31.4 +24.9 68 +45 +45 опасность
перегрева
994.8 990.8
03 16.07 Ю 4 10 км ясно +31.5 +23.9 64 +43 +44 опасность
перегрева
995.9 991.9
06 16.07 Ю 4 10 км ясно +36.2 +23.5 48 +47 +57 опасность
перегрева
996.7 992.8 +30.9
09 16.07 Ю 4 10 км ясно +40.8 +18.9 28 +45 +59 опасность
перегрева
995.1 991.3
12 16.07 З 5 10 км ясно +38.8 +24.6 45 +51 +56 опасность
перегрева
994.0 990.2
15 16.07 З 5 10 км ясно +35.5 +25.9 58 +51 +51 опасность
перегрева
994.8 990.9
18 16.07 ЮЗ 2 10 км ясно +34.6 +25.4 59 +49 +49 опасность
перегрева
996.3 992.4 +41.0
21 16.07 ЮВ 3 10 км ясно +32.8 +25.6 66 +48 +48 опасность
перегрева
996.2 992.3
00 17.07 Ю 2 10 км ясно +31.6 +25.2 69 +46 +46 опасность
перегрева
995.8 991.9
03 17.07 Ю 1 8000 м пыль 3/0
[Ac trans]
+30.8 +23.4 65 +42 +44 опасность
перегрева
997.1 993.2
06 17.07 ЮВ 4 8000 м пыль 3/0
[Ac trans]
+36.4 +24.3 50 +48 +57 опасность
перегрева
997.7 993.8 +28.9
09 17.07 Ю 3 10 км 3/0
[Ac trans]
+43.3 +3.9 9 +40 +54 опасность
солнечного
удара
996.6 992.8
12 17.07 СЗ 6 8000 м пыль 4/0
[Ac trans]
+38.1 +24.4 46 +50 +53 опасность
перегрева
995.6 991.7
15 17.07 С 3 9000 м пыль 4/0
[Ac trans]
+36.8 +24.0 48 +48 +48 опасность
перегрева
995.9 992.1

 

Местоположение метеостанции Шарджа (ОАЭ): широта 25.33 долгота 55.52 высота над уровнем моря 33 м.

В архиве по умолчанию представлена погода в Шардже за последнюю неделю. Архивные данные за месяц целиком и за предыдущие месяцы, начиная с января 2011 года, Вы можете получить, выбрав интересующий диапазон дат из раскрывающегося списка и нажав кнопку "Ввод!".


*Определитесь, кто Вы:
робот инопланетянин человек

Внимание! Время в таблицах - всемирное. Для получения местного времени необходимо прибавить поправку, которая равна 4 ч.

Смотрите также архив погоды в соседних городах и на ближайших метеорологических станциях:

Погода в Дубае (ОАЭ) (21 км)
Погода в Рай-эль-Хайма аэропорту (ОАЭ) (52 км)
Погода в Аль-Мактум аэропорту (ОАЭ) (60 км)
Погода в Дибе (Оман) (80 км)
Погода в Фуджейре (ОАЭ) (85 км)
Погода на Острове Абу-Муса (Иран) (89 км)
Погода на Острове Сирри (Иран) (117 км)
Погода в Эль-Хасаб аэропорту (Оман) (117 км)
Погода в Эль-Айне (ОАЭ) (118 км)
Погода в Эль-Хасабе (Оман) (122 км)

Пояснения к столбцам:

Ветер - указаны скорость ветра в м/с - средняя за 10 мин, порывы в срок и между сроками (в фигурных скобках) и направление, откуда дует ветер: С - северный, СВ - северо-восточный, В - восточный, ЮВ - юго-восточный, Ю - южный, ЮЗ - юго-западный, З - западный, СЗ - северо-западный.
Видимость - горизонтальная дальность видимости в метрах или километрах. При видимости от 1 до 10 км при отсутствии осадков обычно наблюдается дымка, при ухудшении видимости до 1 км и менее - туман. В сухую погоду видимость может ухудшаться дымом, пылью или мглою.
Явления - указаны атмосферные явления, наблюдавшиеся в срок или в последний час перед сроком; фигурными скобками обозначены явления, наблюдавшиеся между сроками (за 1-3 часа до срока); квадратными скобками обозначены град или гололедные отложения с указанием их диаметра в мм.
Облачность - указаны через наклонную черту общая и нижняя облачность в баллах и высота нижней границы облаков в метрах; квадратными скобками обозначены формы облаков: Ci - перистые, Cs - перисто-слоистые, Cc - перисто-кучевые, Ac - высококучевые, As - высокослоистые, Sc - слоисто-кучевые, Ns - слоисто-дождевые, Cu - кучевые, Cb - кучево-дождевые. Подробнее классификацию облаков см. в Атласе облаков (PDF).
T - Температура воздуха - температура, измеренная на высоте 2 м над землей.
Td - Температура точки росы - температура, при понижении до которой содержащийся в воздухе водяной пар достигнет насыщения.
f - Относительная влажность воздуха - влажноcть воздуха, измеренная на высоте 2 м над землей.
Te - Эффективная температура - температура, которую ощущает одетый по сезону человек в тени. Характеристика душности погоды. При расчете учитывается влияние влажности воздуха и скорости ветра на теплоощущения человека.
Tes - Эффективная температура на солнце - температура, которую ощущает человек, с поправкой на солнечный нагрев. Характеристика знойности погоды. Зависит от высоты солнца над горизонтом, облачности и скорости ветра. Ночью, в пасмурную погоду, а также при ветре 12 м/с и более поправка равна нулю.
P - Атмосферное давление - приведенное к уровню моря атмосферное давление.
Po - Атмосферное давление - измеренное на уровне метеостанции атмосферное давление.
Tmin - Минимальная температура - минимум температуры воздуха на высоте 2 м над землей.
Tmax - Максимальная температура - максимум температуры воздуха на высоте 2 м над землей.
R - Количество осадков - Количество выпавших осадков за период времени, мм. При наведении курсора мыши на число - период времени, за который выпало указанное количество осадков.
R24 - Количество осадков - Количество выпавших осадков за 24 часа, мм.
S - Снежный покров - Высота снежного покрова, см. При наведении курсора мыши на число - состояние снежного покрова и степень покрытия местности в баллах.